Tracking 19832 objects as of 26-Aug-2019
HD Live streaming from Space Station
objects crossing your sky now

TITAN 3C TRANSTAGE DEB

Track TITAN 3C TRANSTAGE DEB now!
10-day predictions


NORAD ID: 28808
Int'l Code: 1965-108CA
Perigee: 288.5 km
Apogee: 20,306.5 km
Inclination: 27.8 °
Period: 356.9 minutes
Semi major axis: 16668 km
RCS: 0.01 m2 (small)
Launch date: December 21, 1965
Source: United States (US)
Launch site: AIR FORCE EASTERN TEST RANGE (AFETR)

Note: This is SATELLITE DEBRIS
aabbcc
Your satellite tracking list
Your tracking list is empty




NASA's NSSDC Master Catalog

Two Line Element Set (TLE):
1 28808U 65108CA  19100.75555954  .00002992  00000-0  61669-3 0  9995
2 28808  27.7948 322.6116 6004754 191.2046 144.6142  4.03420585233950
Source of the keplerian elements: AFSPC